Bellingham, WA
on Friday, February 22, 2013

Friday
Previous Day Next Day
Daily Summary
 ActualAverageRecord
Temperature
Mean Temperature °F 41°F  
Max Temperature 50°F 49°F 59°F (1966)
Min Temperature 44°F 33°F 23°F (1957)
Degree Days
Heating Degree Days 18 24  
Month to date heating degree days 539  
Cooling Degree Days 0 0  
Month to date cooling degree days 0  
Year to date cooling degree days 0  
Moisture
Dew Point 38°F   
Average Humidity 73    
Maximum Humidity 81    
Minimum Humidity 54    
Precipitation
Precipitation 0.33 in 0.10 in 1.22 in (2002)
Month to date precipitation 2.40  
Year to date precipitation 7.07  
Wind
Wind Speed 13 mph   
Max Wind Speed 26 mph   
Max Gust Speed 39 mph   
Visibility 8 miles   
Events Rain   

Key: T is trace of precipitation, MM is missing value
Source: NWS Daily Summary
Time(PST)TemperatureDew PointHumidity Pressure Visibility Wind DirectionWind SpeedGust SpeedPrecipitationEvents Conditions
12:46 AM 46.4°F 39.2°F 76% 30.00 in 9.0 miles South 9.2 mph - 0.02 in Rain Light Rain
12:53 AM 46.0°F 39.9°F 79% 30.03 in 6.0 miles South 8.1 mph - 0.03 in Rain Light Rain
1:13 AM 44.6°F 39.2°F 81% 30.00 in 5.0 miles South 8.1 mph - 0.03 in Rain Light Rain
1:23 AM 44.6°F 39.2°F 81% 29.99 in 6.0 miles South 6.9 mph - 0.03 in Rain Light Rain
1:53 AM 46.0°F 39.9°F 79% 30.00 in 10.0 miles South 8.1 mph - 0.04 in Rain Light Rain
2:40 AM 46.4°F 39.2°F 76% 29.96 in 10.0 miles SSE 15.0 mph 19.6 mph 0.01 in Rain Light Rain
2:53 AM 46.9°F 39.0°F 74% 29.98 in 10.0 miles SSE 12.7 mph - 0.02 in Rain Light Rain
3:53 AM 46.0°F 39.0°F 76% 29.95 in 7.0 miles SE 10.4 mph - 0.04 in Rain Light Rain
4:53 AM 45.0°F 37.9°F 76% 29.90 in 7.0 miles SSE 9.2 mph - 0.04 in Rain Light Rain
5:14 AM 44.6°F 39.2°F 81% 29.86 in 10.0 miles ESE 10.4 mph - 0.01 in Rain Light Rain
5:30 AM 46.4°F 37.4°F 71% 29.85 in 10.0 miles SE 13.8 mph 20.7 mph 0.01 in Rain Light Rain
5:53 AM 46.0°F 37.9°F 73% 29.85 in 10.0 miles SE 19.6 mph 28.8 mph 0.02 in   Overcast
6:53 AM 46.9°F 37.9°F 71% 29.81 in 10.0 miles SE 24.2 mph 34.5 mph N/A   Overcast
7:53 AM 46.9°F 37.9°F 71% 29.79 in 10.0 miles SSE 13.8 mph 28.8 mph 0.00 in Rain Light Rain
8:53 AM 46.9°F 39.0°F 74% 29.76 in 9.0 miles SSE 24.2 mph 32.2 mph 0.01 in Rain Light Rain
9:53 AM 48.0°F 39.9°F 74% 29.71 in 6.0 miles SSE 23.0 mph 32.2 mph 0.02 in Rain Light Rain
10:53 AM 48.0°F 39.9°F 74% 29.69 in 9.0 miles SSE 24.2 mph 39.1 mph 0.03 in Rain Light Rain
11:02 AM 48.2°F 39.2°F 71% 29.66 in 10.0 miles SSE 26.5 mph 36.8 mph 0.00 in Rain Light Rain
11:53 AM 48.0°F 39.9°F 74% 29.67 in 8.0 miles SSE 23.0 mph 38.0 mph 0.01 in Rain Light Rain
12:53 PM 46.9°F 39.9°F 77% 29.65 in 10.0 miles SSE 26.5 mph 34.5 mph 0.02 in Rain Light Rain
1:00 PM 46.4°F 39.2°F 76% 29.62 in 10.0 miles SSE 25.3 mph 39.1 mph 0.00 in   Overcast
1:20 PM 46.4°F 39.2°F 76% 29.62 in 4.0 miles SSE 24.2 mph 35.7 mph 0.00 in Rain Light Rain
1:53 PM 48.0°F 39.9°F 74% 29.66 in 10.0 miles SSE 19.6 mph 32.2 mph 0.00 in   Overcast
2:14 PM 46.4°F 41.0°F 81% 29.64 in 2.0 miles SSE 19.6 mph 31.1 mph 0.02 in Rain Light Rain
2:23 PM 46.4°F 41.0°F 81% 29.63 in 5.0 miles SSE 18.4 mph 28.8 mph 0.02 in Rain Light Rain
2:46 PM 48.2°F 41.0°F 76% 29.63 in 5.0 miles SSE 15.0 mph - 0.02 in   Haze
2:53 PM 48.9°F 41.0°F 74% 29.65 in 5.0 miles SSE 19.6 mph 26.5 mph 0.02 in   Haze
3:39 PM 50.0°F 37.4°F 62% 29.64 in 10.0 miles South 10.4 mph 20.7 mph 0.03 in   Overcast
3:53 PM 48.9°F 37.0°F 64% 29.67 in 10.0 miles South 9.2 mph 17.3 mph 0.03 in   Mostly Cloudy
4:53 PM 48.9°F 36.0°F 61% 29.67 in 10.0 miles South 6.9 mph 18.4 mph N/A   Scattered Clouds
5:53 PM 48.0°F 32.0°F 54% 29.68 in 10.0 miles SW 9.2 mph 18.4 mph N/A   Clear
6:53 PM 46.0°F 33.1°F 61% 29.73 in 10.0 miles South 11.5 mph 20.7 mph N/A   Mostly Cloudy
7:53 PM 45.0°F 34.0°F 65% 29.75 in 10.0 miles South 9.2 mph - N/A   Overcast
8:53 PM 45.0°F 34.0°F 65% 29.78 in 10.0 miles South 9.2 mph - N/A   Mostly Cloudy
9:53 PM 44.1°F 34.0°F 68% 29.80 in 10.0 miles South 4.6 mph - N/A   Clear
10:53 PM 44.1°F 35.1°F 71% 29.83 in 10.0 miles South 8.1 mph - N/A   Clear
11:53 PM 44.1°F 35.1°F 71% 29.85 in 10.0 miles South 5.8 mph - N/A   Partly Cloudy
Moon Phase
Feb. 22 Feb. 25 Mar. 04 Mar. 11 Mar. 19
Sunrise:07:04 AM (PST) Moon Rise:02:50 PM (PST)2/22
Sunset:05:43 PM (PST) Moon Set:05:03 AM (PST)2/22

Copyright © 2014 The Weather Underground, Inc.